Location: Cassagne
(43.1218°N, 0.9901°E)
Time: 09:31:25
(UTC+00:00)

SL-16 R/B - Pass Details

Date: 17 February 2020
Orbit: 843 x 847 km, 71.0° (Epoch: 03 April)

Event Time Altitude Azimuth Distance (km) Brightness Sun altitude
Exits shadow 04:42:05 60° 285° (WNW) 968 2.1 -24.3°
Maximum altitude 04:42:19 60° 298° (WNW) 963 2.2 -24.3°
Drops below altitude 10° 04:47:57 10° 18° (NNE) 2,474 4.9 -23.2°
Sets 04:50:26 0° 22° (NNE) 3,413 5.7 -22.8°
